WD8LSN Weather Reports


Display with metric or nautical units.
time (UTC)temp
F
wind
direction
speed
MPH
gust
MPH
rain 1hr
in
rain 24hr
in
rain mn
in
humidity
%
barometer
mb
20260903064559 74 0 0.0 1.0 0.00 0.00 0.00 91 1018.5
20260903063057 74 0 0.0 0.0 0.00 0.00 0.00 91 1018.5
20260903061600 74 0 0.0 2.0 0.00 0.00 0.00 91 1018.6
20260903060122 75 0 0.0 0.0 0.00 0.00 0.00 91 1018.6
20260903054557 75 0 0.0 2.0 0.00 0.00 0.00 91 1018.5
20260903053059 75 146 0.0 2.0 0.00 0.00 0.00 90 1018.4
20260903051607 76 0 0.0 2.0 0.00 0.00 0.00 90 1018.4
20260903050100 76 144 0.0 1.0 0.00 0.00 0.00 90 1018.5
20260903044557 76 159 0.0 2.0 0.00 0.00 0.00 89 1018.4
20260903043104 77 0 0.0 2.0 0.00 0.00 0.00 89 1018.2
20260903041559 77 0 0.0 0.0 0.00 0.00 0.00 88 1018.1
20260903034602 78 0 0.0 0.0 0.00 0.00 0.00 86 1018.3
20260903033102 79 0 0.0 0.0 0.00 0.00 0.00 84 1018.4
20260903031559 79 0 0.0 0.0 0.00 0.00 0.00 84 1018.5
20260903024558 80 0 0.0 1.0 0.00 0.00 0.00 81 1018.6
20260903023106 80 234 0.0 0.0 0.00 0.00 0.00 80 1018.7
20260903021559 81 0 0.0 1.0 0.00 0.00 0.00 78 1018.7
20260903020056 81 0 0.0 0.0 0.00 0.00 0.00 78 1018.7
20260903014618 82 0 0.0 0.0 0.00 0.00 0.00 76 1018.6
20260903013106 83 0 0.0 0.0 0.00 0.00 0.00 75 1018.6
20260903011609 83 0 0.0 2.0 0.00 0.00 0.00 74 1018.5
20260903010105 84 0 0.0 0.0 0.00 0.00 0.00 72 1018.3
20260903004600 85 0 0.0 1.0 0.00 0.00 0.00 71 1018.2
20260903003059 85 0 0.0 2.0 0.00 0.00 0.00 70 1017.9
20260903001555 86 0 0.0 2.0 0.00 0.00 0.00 68 1017.9
20260903000107 88 0 0.0 2.0 0.00 0.00 0.00 65 1018.0
20260902234602 91 85 0.0 2.0 0.00 0.00 0.00 62 1017.9
20260902233059 93 0 0.0 1.0 0.00 0.00 0.00 60 1018.0
20260902231602 93 233 0.0 2.0 0.00 0.00 0.00 59 1017.9
20260902230106 94 82 0.0 4.0 0.00 0.00 0.00 60 1018.0
20260902224607 94 290 1.0 3.0 0.00 0.00 0.00 59 1018.1
20260902223110 93 189 0.0 3.0 0.00 0.00 0.00 60 1018.0
20260902221559 93 233 1.0 6.0 0.00 0.00 0.00 59 1018.1
20260902220105 94 245 0.0 4.0 0.00 0.00 0.00 58 1018.1
20260902214607 93 297 2.0 6.0 0.00 0.00 0.00 57 1018.2
20260902213057 94 238 2.0 6.0 0.00 0.00 0.00 57 1018.2
20260902211557 94 293 3.0 6.0 0.00 0.00 0.00 57 1018.2
20260902210059 93 234 4.0 8.0 0.00 0.00 0.00 57 1018.4
20260902204600 94 105 2.0 6.0 0.00 0.00 0.00 59 1018.2
20260902203109 95 302 1.0 7.0 0.00 0.00 0.00 60 1018.3
20260902201601 94 309 2.0 5.0 0.00 0.00 0.00 58 1018.5
20260902200059 94 226 2.0 8.0 0.00 0.00 0.00 57 1018.6
20260902194558 93 188 3.0 10.0 0.00 0.00 0.00 61 1018.8
20260902193105 94 293 1.0 6.0 0.00 0.00 0.00 60 1019.1
20260902191559 93 252 3.0 8.0 0.00 0.00 0.00 59 1019.2
20260902184554 92 334 2.0 6.0 0.00 0.00 0.00 62 1019.5
20260902183110 92 269 3.0 7.0 0.00 0.00 0.00 61 1019.7
20260902181558 92 300 1.0 7.0 0.00 0.00 0.00 63 1019.7
20260902180055 93 295 2.0 6.0 0.00 0.00 0.00 61 1019.8
20260902174603 91 321 4.0 8.0 0.00 0.00 0.00 64 1019.9
20260902173134 91 270 3.0 7.0 0.00 0.00 0.00 63 1020.0
20260902171619 91 236 1.0 8.0 0.00 0.00 0.00 64 1020.2
20260902170101 90 313 3.0 5.0 0.00 0.00 0.00 67 1020.5
20260902164601 91 273 1.0 5.0 0.00 0.00 0.00 67 1020.5
20260902163055 89 315 3.0 5.0 0.00 0.00 0.00 68 1020.9
20260902161606 89 269 2.0 6.0 0.00 0.00 0.00 70 1020.9
20260902160105 89 297 1.0 4.0 0.00 0.00 0.00 71 1021.0
20260902154557 88 314 2.0 5.0 0.00 0.00 0.00 72 1021.0
20260902153103 87 255 0.0 4.0 0.00 0.00 0.00 73 1021.1
20260902151556 87 297 1.0 3.0 0.00 0.00 0.00 75 1021.1
20260902150058 85 230 1.0 4.0 0.00 0.00 0.00 78 1021.1
20260902144555 84 292 1.0 5.0 0.00 0.00 0.00 80 1021.2
20260902143058 84 0 0.0 2.0 0.00 0.00 0.00 80 1021.2
20260902141608 84 286 0.0 2.0 0.00 0.00 0.00 79 1021.1
20260902140054 83 0 0.0 2.0 0.00 0.00 0.00 81 1020.9
20260902134600 82 167 0.0 3.0 0.00 0.00 0.00 84 1020.8
20260902133101 80 0 0.0 3.0 0.00 0.00 0.00 85 1020.9
20260902131603 78 0 1.0 4.0 0.00 0.00 0.00 88 1020.7
20260902124608 76 155 1.0 6.0 0.00 0.00 0.00 89 1020.6
20260902123152 75 189 2.0 4.0 0.00 0.00 0.00 89 1020.8
20260902121558 75 165 1.0 3.0 0.00 0.00 0.00 90 1020.7
20260902120057 73 177 1.0 4.0 0.00 0.00 0.00 91 1020.5
20260902114556 72 0 1.0 2.0 0.00 0.00 0.00 92 1020.4
20260902113102 71 136 0.0 1.0 0.00 0.00 0.00 92 1020.2
20260902111600 70 136 0.0 1.0 0.00 0.00 0.00 93 1020.2
20260902110108 70 135 0.0 1.0 0.00 0.00 0.00 93 1020.3
20260902104556 71 147 0.0 1.0 0.00 0.00 0.00 93 1020.1
20260902103055 71 0 0.0 1.0 0.00 0.00 0.00 92 1020.1
20260902101558 71 147 0.0 1.0 0.00 0.00 0.00 92 1020.0
20260902100100 71 0 0.0 0.0 0.00 0.00 0.00 92 1020.0
20260902094558 71 0 0.0 1.0 0.00 0.00 0.00 92 1020.0
20260902093059 71 153 0.0 1.0 0.00 0.00 0.00 92 1020.0
20260902091612 71 0 0.0 0.0 0.00 0.00 0.00 92 1020.0
20260902090111 71 0 0.0 1.0 0.00 0.00 0.00 92 1019.8
20260902084552 72 153 0.0 1.0 0.00 0.00 0.00 92 1019.7
20260902083058 72 0 0.0 2.0 0.00 0.00 0.00 92 1019.6
20260902081555 72 164 0.0 0.0 0.00 0.00 0.00 92 1019.5
20260902080059 72 0 0.0 2.0 0.00 0.00 0.00 92 1019.4
20260902074559 72 162 0.0 1.0 0.00 0.00 0.00 92 1019.3
20260902073058 72 0 0.0 1.0 0.00 0.00 0.00 91 1019.3
20260902071555 73 0 0.0 1.0 0.00 0.00 0.00 91 1019.1
20260902070054 73 139 0.0 2.0 0.00 0.00 0.00 91 1019.0